SQ9IWE-13 Weather Reports


Display with metric or nautical units.
time (UTC)temp
F
wind
direction
speed
MPH
gust
MPH
rain 1hr
in
rain 24hr
in
rain mn
in
humidity
%
barometer
mb
20260508130001 56 0.0 0.0 0.00 0.00 0.00 79 1017.8
20260508125001 57 0.0 0.0 0.00 0.00 0.00 78 1017.9
20260508124001 57 0.0 0.0 0.00 0.00 0.00 78 1017.8
20260508123001 56 0.0 0.0 0.00 0.00 0.00 80 1017.8
20260508122001 57 0.0 0.0 0.00 0.00 0.00 83 1017.8
20260508121001 57 0.0 0.0 0.00 0.00 0.00 83 1017.8
20260508120001 56 0.0 0.0 0.00 0.00 0.00 85 1017.8
20260508115001 56 0.0 0.0 0.00 0.00 0.00 87 1017.7
20260508114001 55 0.0 0.0 0.00 0.00 0.00 87 1017.8
20260508113001 55 0.0 0.0 0.00 0.00 0.00 85 1017.7
20260508111001 57 0.0 0.0 0.00 0.00 0.00 84 1017.5
20260508110001 57 0.0 0.0 0.00 0.00 0.00 83 1017.5
20260508105001 58 0.0 0.0 0.00 0.00 0.00 79 1017.4
20260508104001 57 0.0 0.0 0.00 0.00 0.00 84 1017.4
20260508103001 57 0.0 0.0 0.00 0.00 0.00 83 1017.5
20260508102001 56 0.0 0.0 0.00 0.00 0.00 85 1017.5
20260508101001 55 0.0 0.0 0.00 0.00 0.00 84 1017.5
20260508100001 57 0.0 0.0 0.00 0.00 0.00 83 1017.4
20260508095000 57 0.0 0.0 0.00 0.00 0.00 85 1017.4
20260508094000 57 0.0 0.0 0.00 0.00 0.00 84 1017.5
20260508093000 54 0.0 0.0 0.00 0.00 0.00 92 1017.4
20260508092000 54 0.0 0.0 0.00 0.00 0.00 95 1017.5
20260508091000 54 0.0 0.0 0.00 0.00 0.00 95 1017.5
20260508090000 53 0.0 0.0 0.00 0.00 0.00 96 1017.4
20260508085000 54 0.0 0.0 0.00 0.00 0.00 97 1017.3
20260508084000 53 0.0 0.0 0.00 0.00 0.00 98 1017.3
20260508083001 53 0.0 0.0 0.00 0.00 0.00 100 1017.3
20260508082001 52 0.0 0.0 0.00 0.00 0.00 100 1017.3
20260508081001 52 0.0 0.0 0.00 0.00 0.00 100 1017.2
20260508080001 52 0.0 0.0 0.00 0.00 0.00 100 1017.0
20260508075001 52 0.0 0.0 0.00 0.00 0.00 100 1016.9
20260508074001 51 0.0 0.0 0.00 0.00 0.00 100 1016.8
20260508073001 52 0.0 0.0 0.00 0.00 0.00 100 1016.7
20260508072001 52 0.0 0.0 0.00 0.00 0.00 100 1016.7
20260508071001 52 0.0 0.0 0.00 0.00 0.00 100 1016.5
20260508070001 52 0.0 0.0 0.00 0.00 0.00 100 1016.5
20260508065001 51 0.0 0.0 0.00 0.00 0.00 100 1016.3
20260508063001 52 0.0 0.0 0.00 0.00 0.00 100 1016.3
20260508062001 51 0.0 0.0 0.00 0.00 0.00 100 1016.2
20260508061001 50 0.0 0.0 0.00 0.00 0.00 100 1016.3
20260508060001 50 0.0 0.0 0.00 0.00 0.00 100 1016.2
20260508055001 50 0.0 0.0 0.00 0.00 0.00 100 1016.2
20260508054001 51 0.0 0.0 0.00 0.00 0.00 100 1016.0
20260508053001 51 0.0 0.0 0.00 0.00 0.00 100 1016.0
20260508052001 51 0.0 0.0 0.00 0.00 0.00 100 1016.0
20260508051001 51 0.0 0.0 0.00 0.00 0.00 100 1015.8
20260508050001 51 0.0 0.0 0.00 0.00 0.00 100 1015.7
20260508045001 51 0.0 0.0 0.00 0.00 0.00 100 1015.6
20260508044001 51 0.0 0.0 0.00 0.00 0.00 100 1015.7
20260508043001 51 0.0 0.0 0.00 0.00 0.00 100 1015.5
20260508042001 51 0.0 0.0 0.00 0.00 0.00 100 1015.5
20260508041001 51 0.0 0.0 0.00 0.00 0.00 100 1015.4
20260508040001 51 0.0 0.0 0.00 0.00 0.00 100 1015.4
20260508035001 51 0.0 0.0 0.00 0.00 0.00 100 1015.5
20260508034001 51 0.0 0.0 0.00 0.00 0.00 100 1015.3
20260508033001 51 0.0 0.0 0.00 0.00 0.00 100 1015.1
20260508032001 51 0.0 0.0 0.00 0.00 0.00 100 1014.9
20260508031001 51 0.0 0.0 0.00 0.00 0.00 100 1014.8
20260508030001 51 0.0 0.0 0.00 0.00 0.00 100 1014.6
20260508025000 51 0.0 0.0 0.00 0.00 0.00 100 1014.8
20260508024001 51 0.0 0.0 0.00 0.00 0.00 100 1014.6
20260508023000 51 0.0 0.0 0.00 0.00 0.00 100 1014.5
20260508022000 51 0.0 0.0 0.00 0.00 0.00 100 1014.4
20260508021000 51 0.0 0.0 0.00 0.00 0.00 100 1014.6
20260508020000 51 0.0 0.0 0.00 0.00 0.00 100 1014.7
20260508015000 51 0.0 0.0 0.00 0.00 0.00 100 1014.9
20260508014000 52 0.0 0.0 0.00 0.00 0.00 100 1014.8
20260508013000 52 0.0 0.0 0.00 0.00 0.00 100 1014.8
20260508012001 52 0.0 0.0 0.00 0.00 0.00 100 1014.9
20260508011001 52 0.0 0.0 0.00 0.00 0.00 100 1014.9
20260508010001 53 0.0 0.0 0.00 0.00 0.00 100 1014.8
20260508005001 53 0.0 0.0 0.00 0.00 0.00 100 1014.5
20260508004001 53 0.0 0.0 0.00 0.00 0.00 100 1014.5
20260508003001 53 0.0 0.0 0.00 0.00 0.00 100 1014.4
20260508002001 54 0.0 0.0 0.00 0.00 0.00 100 1014.4
20260508001001 54 0.0 0.0 0.00 0.00 0.00 100 1014.3
20260508000001 54 0.0 0.0 0.00 0.00 0.00 100 1014.3
20260507235001 55 0.0 0.0 0.00 0.00 0.00 100 1014.3
20260507234001 55 0.0 0.0 0.00 0.00 0.00 100 1014.4
20260507233001 55 0.0 0.0 0.00 0.00 0.00 100 1014.4
20260507232001 55 0.0 0.0 0.00 0.00 0.00 100 1014.4
20260507231001 55 0.0 0.0 0.00 0.00 0.00 100 1014.5
20260507230001 55 0.0 0.0 0.00 0.00 0.00 100 1014.5
20260507225001 55 0.0 0.0 0.00 0.00 0.00 100 1014.4
20260507224001 55 0.0 0.0 0.00 0.00 0.00 100 1014.5
20260507223001 55 0.0 0.0 0.00 0.00 0.00 100 1014.4
20260507222001 55 0.0 0.0 0.00 0.00 0.00 100 1014.5
20260507221001 55 0.0 0.0 0.00 0.00 0.00 100 1014.4
20260507220001 55 0.0 0.0 0.00 0.00 0.00 100 1014.1
20260507215001 55 0.0 0.0 0.00 0.00 0.00 100 1014.2
20260507214001 55 0.0 0.0 0.00 0.00 0.00 100 1014.3
20260507212001 55 0.0 0.0 0.00 0.00 0.00 100 1014.2
20260507211000 55 0.0 0.0 0.00 0.00 0.00 100 1014.1
20260507210001 55 0.0 0.0 0.00 0.00 0.00 100 1013.9
20260507205000 55 0.0 0.0 0.00 0.00 0.00 100 1013.7
20260507204001 55 0.0 0.0 0.00 0.00 0.00 100 1013.5
20260507203000 55 0.0 0.0 0.00 0.00 0.00 100 1013.5
20260507202000 55 0.0 0.0 0.00 0.00 0.00 100 1013.3
20260507201000 55 0.0 0.0 0.00 0.00 0.00 100 1013.5
20260507200000 55 0.0 0.0 0.00 0.00 0.00 100 1013.6
20260507195000 55 0.0 0.0 0.00 0.00 0.00 100 1013.7
20260507194000 55 0.0 0.0 0.00 0.00 0.00 100 1013.4
20260507193000 55 0.0 0.0 0.00 0.00 0.00 100 1013.0
20260507192000 55 0.0 0.0 0.00 0.00 0.00 99 1012.9
20260507191000 55 0.0 0.0 0.00 0.00 0.00 100 1012.8
20260507190001 55 0.0 0.0 0.00 0.00 0.00 100 1012.9
20260507185001 56 0.0 0.0 0.00 0.00 0.00 100 1012.9
20260507184001 56 0.0 0.0 0.00 0.00 0.00 100 1012.8
20260507183001 58 0.0 0.0 0.00 0.00 0.00 93 1012.6
20260507182001 59 0.0 0.0 0.00 0.00 0.00 87 1012.6
20260507181001 60 0.0 0.0 0.00 0.00 0.00 84 1012.5
20260507180001 60 0.0 0.0 0.00 0.00 0.00 83 1011.7
20260507175001 59 0.0 0.0 0.00 0.00 0.00 84 1011.3
20260507173001 60 0.0 0.0 0.00 0.00 0.00 81 1011.0
20260507172001 63 0.0 0.0 0.00 0.00 0.00 76 1011.3
20260507171001 61 0.0 0.0 0.00 0.00 0.00 80 1010.9
20260507170001 62 0.0 0.0 0.00 0.00 0.00 79 1010.7
20260507165001 64 0.0 0.0 0.00 0.00 0.00 74 1010.7
20260507164001 64 0.0 0.0 0.00 0.00 0.00 71 1010.5
20260507162001 65 0.0 0.0 0.00 0.00 0.00 68 1010.1
20260507161001 65 0.0 0.0 0.00 0.00 0.00 68 1010.1
20260507160001 65 0.0 0.0 0.00 0.00 0.00 70 1010.2
20260507155001 65 0.0 0.0 0.00 0.00 0.00 71 1010.2
20260507154001 65 0.0 0.0 0.00 0.00 0.00 70 1010.2
20260507153001 66 0.0 0.0 0.00 0.00 0.00 69 1010.3
20260507152001 66 0.0 0.0 0.00 0.00 0.00 68 1010.4
20260507151001 66 0.0 0.0 0.00 0.00 0.00 67 1010.2
20260507150001 66 0.0 0.0 0.00 0.00 0.00 67 1010.2
20260507145001 66 0.0 0.0 0.00 0.00 0.00 66 1010.1
20260507144001 66 0.0 0.0 0.00 0.00 0.00 66 1010.1
20260507143001 67 0.0 0.0 0.00 0.00 0.00 63 1010.1
20260507142001 68 0.0 0.0 0.00 0.00 0.00 61 1010.2
20260507141001 69 0.0 0.0 0.00 0.00 0.00 57 1010.2
20260507140001 70 0.0 0.0 0.00 0.00 0.00 58 1010.3
20260507135001 70 0.0 0.0 0.00 0.00 0.00 58 1010.2
20260507134001 69 0.0 0.0 0.00 0.00 0.00 57 1010.3
20260507133000 69 0.0 0.0 0.00 0.00 0.00 57 1010.4
20260507132000 69 0.0 0.0 0.00 0.00 0.00 56 1010.3
20260507131000 69 0.0 0.0 0.00 0.00 0.00 59 1010.3